Regional Weather Roundup
Issued by NWS Spokane, WA

Home | Current Version | Previous Version | Text Only | Print | Product List | Glossary On
Versions: 1 2 3 4 5 6 7 8 9 10 11 12 13 14 15 16 17 18 19 20 21 22 23 24 25 26 27 28 29 30 31 32 33 34 35 36 37 38 39 40 41 42 43 44 45 46 47 48 49 50
110
NZUS01 KOTX 232110
RWROTX
EASTERN WASHINGTON/NORTHERN IDAHO ROUNDUP
NATIONAL WEATHER SERVICE, SPOKANE WA
200 PM PDT SAT JUL 23 2016

Note: "fair" indicated few or no clouds below 12,000 feet with no
significant weather and/or obstructions to visibility.

...NORTHEAST WASHINGTON AND NORTHERN IDAHO PANHANDLE...

CITY           SKY/WX    TMP DP  RH WIND       PRES   REMARKS
SPOKANE INTL   MOSUNNY   73  40  30 VRB5      30.16F
SPOKANE DOWNTO SUNNY     75  46  35 CALM      30.16F
COEUR D ALENE  MOSUNNY   73  48  40 CALM      30.15F
DEER PARK      MOSUNNY   72  44  36 VRB6      30.17F
SANDPOINT      MOSUNNY   70  50  49 SW6       30.16F
BONNERS FERRY    N/A     73  50  43 S9        30.14F

...SOUTHEAST WASHINGTON AND SOUTHERN IDAHO PANHANDLE...

CITY           SKY/WX    TMP DP  RH WIND       PRES   REMARKS
WALLA WALLA    SUNNY     78  43  28 SW10      30.13F
PULLMAN/MOSCOW MOSUNNY   73  46  38 VRB7      30.19F
LEWISTON       SUNNY     81  44  27 NW3       30.11F
LOWELL           N/A     82  47  29 VRB3      30.08F

...COLUMBIA BASIN...

CITY           SKY/WX    TMP DP  RH WIND       PRES   REMARKS
EPHRATA        SUNNY     80  44  27 SW13G18   30.11F
MOSES LAKE     SUNNY     79  42  26 SW7       30.13F
TRI CITIES     SUNNY     81  47  30 VRB3      30.11F
HERMISTON      SUNNY     81  46  29 NW7       30.11F
PENDLETON      SUNNY     79  42  26 VRB6      30.13F

...EAST SLOPES CASCADES...

CITY           SKY/WX    TMP DP  RH WIND       PRES   REMARKS
THE DALLES     SUNNY     80  49  33 NW20G28   30.11F
YAKIMA         SUNNY     81  43  26 VRB7      30.12F
ELLENSBURG     SUNNY     79  44  28 W5        30.13F
STAMPEDE PASS  MOSUNNY   58  47  66 VRB7      30.27S
WENATCHEE      SUNNY     79  44  28 SE7       30.10F
OMAK           SUNNY     79  42  26 VRB5      30.10F

...SOUTHERN BRITISH COLUMBIA...

CITY           SKY/WX    TMP DP  RH WIND       PRES   REMARKS
PENTICTON      PTSUNNY   77  48  36 NW6       30.09F
CASTLEGAR      PTSUNNY   75  54  46 S8        30.10F
CRANBROOK      PTSUNNY   70  46  43 S18       30.08S

...WESTERN MONTANA...

CITY           SKY/WX    TMP DP  RH WIND       PRES   REMARKS
MISSOULA       MOSUNNY   76  42  29 W9        30.13F

...NEIGHBORING CITIES...

CITY           SKY/WX    TMP DP  RH WIND       PRES   REMARKS
SEATTLE        PTSUNNY   68  55  63 CALM      30.27F
CALGARY        PTSUNNY   75  48  38 SE12      29.97F



USA.gov is the U.S. government's official web portal to all federal, state and local government web resources and services.